Butte, MT

12:47 AM MDT on June 25, 2017 (GMT -0600)
Mooney

Weather History for KBTM - February, 2012

Change the Weather History Date:

Thursday, February 23, 2012

  Actual Average Record
Temperature  
Mean Temperature 26 °F 24 °F  
Max Temperature 30 °F 37 °F 57 °F (1995)
Min Temperature 22 °F 11 °F -32 °F (1942)
Degree Days  
Heating Degree Days 39 41  
Month to date heating degree days 939 999  
Since 1 July heating degree days 5892 6370  
Cooling Degree Days 0 0  
Month to date cooling degree days 0 0  
Year to date cooling degree days 0 0  
Moisture  
Dew Point 13 °F    
Average Humidity 62    
Maximum Humidity 81    
Minimum Humidity 42    
Precipitation  
Precipitation 0.01 in 0.01 in 0.29 in (1996)
Month to date precipitation 0.14 0.34  
Year to date precipitation 0.25 0.81  
Snow  
Snow 0.00 in - - ()
Snow Depth -    
Sea Level Pressure  
Sea Level Pressure 30.07 in    
Wind  
Wind Speed 8 mph (NW)    
Max Wind Speed 23 mph    
Max Gust Speed 31 mph    
Visibility 9 miles    
Events Snow    
T = Trace of Precipitation, MM = Missing Value Source: NWS Daily Summary

Daily Weather History Graph

Daily Weather History Graph

Search for Another Location

Airport or City:

Trip Planner

Search our weather history database for the weather conditions in past years. The results will help you decide how hot, cold, wet, or windy it might be!

Date:

Astronomy

Feb. 23, 2012 Rise Set
Actual Time 7:20 AM MST 6:07 PM MST
Civil Twilight 6:49 AM MST 6:37 PM MST
Nautical Twilight 6:15 AM MST 7:12 PM MST
Astronomical Twilight 5:40 AM MST 7:46 PM MST
Moon 7:39 AM MST (2/23) 8:27 PM MST (2/23)
Length of Visible Light 11h 47m
Length of Day
10h 47m
Waxing Crescent, 3% of the Moon is Illuminated
Feb 23
Waxing Crescent
Feb 29
First Quarter
Mar 8
Full
Mar 14
Last Quarter
Mar 22
New

Hourly Weather History & Observations

Time (MST) Temp. Windchill Dew Point Humidity Pressure Visibility Wind Dir Wind Speed Gust Speed Precip Events Conditions
12:53 AM 24.1 °F 14.4 °F 15.1 °F 69% 29.89 in 10.0 mi NW 9.2 mph - N/A   Mostly Cloudy
1:53 AM 21.9 °F 13.4 °F 14.0 °F 72% 29.93 in 10.0 mi WNW 6.9 mph - N/A   Scattered Clouds
2:53 AM 24.1 °F 15.2 °F 15.1 °F 69% 29.92 in 10.0 mi WNW 8.1 mph - N/A   Overcast
3:53 AM 21.9 °F 14.5 °F 14.0 °F 72% 29.98 in 10.0 mi WNW 5.8 mph - N/A   Mostly Cloudy
4:53 AM 23.0 °F 15.8 °F 14.0 °F 68% 30.01 in 10.0 mi NNW 5.8 mph - N/A   Overcast
5:53 AM 23.0 °F 17.0 °F 15.1 °F 72% 30.04 in 10.0 mi WNW 4.6 mph - N/A   Overcast
6:26 AM 23.0 °F 14.7 °F 15.8 °F 74% 29.94 in 2.5 mi WNW 6.9 mph - 0.00 in Snow Light Snow
6:35 AM 21.2 °F 13.6 °F 17.6 °F 86% 29.94 in 1.5 mi NW 5.8 mph - 0.01 in Snow Light Snow
6:45 AM 21.2 °F 13.6 °F 17.6 °F 86% 29.94 in 3.0 mi NW 5.8 mph - 0.01 in Snow Light Snow
6:53 AM 21.9 °F 17.2 °F 16.0 °F 78% 30.07 in 9.0 mi NW 3.5 mph - 0.01 in   Overcast
7:03 AM 21.2 °F 13.6 °F 15.8 °F 80% 29.94 in 10.0 mi WNW 5.8 mph - N/A   Overcast
7:53 AM 21.9 °F 15.7 °F 15.1 °F 75% 30.09 in 10.0 mi NW 4.6 mph - N/A   Overcast
8:53 AM 21.9 °F - 14.0 °F 72% 30.12 in 10.0 mi Calm Calm - N/A   Overcast
9:32 AM 23.0 °F 11.7 °F 15.8 °F 74% 29.99 in 1.8 mi NW 11.5 mph 18.4 mph 0.00 in Snow Light Snow
9:41 AM 23.0 °F 11.1 °F 15.8 °F 74% 29.99 in 3.0 mi NW 12.7 mph - 0.00 in Snow Light Snow
9:53 AM 25.0 °F 15.5 °F 15.1 °F 66% 30.13 in 10.0 mi WNW 9.2 mph - 0.00 in   Overcast
10:53 AM 26.1 °F 13.1 °F 12.0 °F 55% 30.14 in 10.0 mi WNW 17.3 mph 20.7 mph N/A   Mostly Cloudy
11:53 AM 28.0 °F 16.5 °F 10.0 °F 47% 30.13 in 10.0 mi WNW 15.0 mph 25.3 mph 0.00 in   Overcast
12:53 PM 27.0 °F 15.6 °F 10.0 °F 49% 30.12 in 10.0 mi WNW 13.8 mph 19.6 mph N/A   Mostly Cloudy
1:53 PM 28.9 °F 16.5 °F 9.0 °F 43% 30.12 in 10.0 mi WNW 18.4 mph 24.2 mph N/A   Partly Cloudy
2:53 PM 30.0 °F 18.7 °F 10.0 °F 43% 30.12 in 10.0 mi NW 16.1 mph 23.0 mph N/A   Mostly Cloudy
3:53 PM 27.0 °F 14.7 °F 10.0 °F 49% 30.15 in 10.0 mi WNW 16.1 mph 28.8 mph N/A   Mostly Cloudy
4:53 PM 27.0 °F 15.6 °F 10.9 °F 51% 30.15 in 10.0 mi WNW 13.8 mph 25.3 mph N/A   Clear
5:53 PM 25.0 °F 13.6 °F 10.0 °F 53% 30.17 in 10.0 mi WNW 12.7 mph - N/A   Partly Cloudy
6:53 PM 24.1 °F - 10.0 °F 55% 30.19 in 10.0 mi Calm Calm - N/A   Overcast
7:53 PM 24.1 °F 19.7 °F 10.0 °F 55% 30.20 in 10.0 mi WNW 3.5 mph - N/A   Overcast
8:53 PM 24.1 °F 19.7 °F 10.0 °F 55% 30.20 in 10.0 mi NW 3.5 mph - N/A   Overcast
9:53 PM 24.1 °F - 9.0 °F 53% 30.19 in 10.0 mi Calm Calm - N/A   Overcast
10:53 PM 25.0 °F 17.1 °F 9.0 °F 51% 30.19 in 10.0 mi WNW 6.9 mph - N/A   Overcast
11:53 PM 23.0 °F 15.8 °F 10.0 °F 58% 30.19 in 10.0 mi WNW 5.8 mph - N/A   Mostly Cloudy